Orbital elements of COSMOS 970 DEB
| Launched | 20 December 1977 |
| Flight ended | – |
| Launch site | Tyuratam Missile and Space Center, Kazakhstan (Also known as Baikonur Cosmodrome) |
| Owner | Commonwealth of Independent States (former USSR) |
| NORAD ID | 14906 |
| Date fetched |
Epoch osculation |
Inc. [°] |
Ecc. | RA asc node [hr] |
Arg Peri. [°] |
Mean anom [°] |
Mean motion [rev/day] |
Abs. mag |
| Date fetched |
Epoch osculation |
Inc. [°] |
Ecc. | RA asc node [hr] |
Arg Peri. [°] |
Mean anom [°] |
Mean motion [rev/day] |
Abs. mag |
| 2026 May 03 17:57 | 2026 Apr 30 12:21:01 | 65.9509 | 0.01093 | 20.0617 | 136.6532 | 257.3016 | 13.73210 | – |
| 2026 May 02 17:57 | 2026 Apr 30 12:21:01 | 65.9509 | 0.01093 | 20.0617 | 136.6532 | 257.3016 | 13.73210 | – |
| 2026 May 01 17:56 | 2026 Apr 30 12:21:01 | 65.9509 | 0.01093 | 20.0617 | 136.6532 | 257.3016 | 13.73210 | – |
| 2026 Apr 30 17:56 | 2026 Apr 30 12:21:01 | 65.9509 | 0.01093 | 20.0617 | 136.6532 | 257.3016 | 13.73210 | – |
| 2026 Apr 29 17:57 | 2026 Apr 23 23:28:24 | 65.9512 | 0.01095 | 21.1303 | 140.1409 | 257.3016 | 13.73210 | – |
| 2026 Apr 28 17:56 | 2026 Apr 23 23:28:24 | 65.9512 | 0.01095 | 21.1303 | 140.1409 | 257.3016 | 13.73210 | – |
| 2026 Apr 27 17:58 | 2026 Apr 23 23:28:24 | 65.9512 | 0.01095 | 21.1303 | 140.1409 | 257.3016 | 13.73210 | – |
| 2026 Apr 26 17:58 | 2026 Apr 23 23:28:24 | 65.9512 | 0.01095 | 21.1303 | 140.1409 | 257.3016 | 13.73210 | – |
| 2026 Apr 25 17:58 | 2026 Apr 23 23:28:24 | 65.9512 | 0.01095 | 21.1303 | 140.1409 | 257.3016 | 13.73210 | – |
| 2026 Apr 24 17:59 | 2026 Apr 23 23:28:24 | 65.9512 | 0.01095 | 21.1303 | 140.1409 | 257.3016 | 13.73210 | – |
| 2026 Apr 23 17:57 | 2026 Apr 19 00:44:07 | 65.9521 | 0.01097 | 21.9392 | 142.8119 | 257.3016 | 13.73210 | – |
| 2026 Apr 22 17:57 | 2026 Apr 19 00:44:07 | 65.9521 | 0.01097 | 21.9392 | 142.8119 | 257.3016 | 13.73210 | – |
| 2026 Apr 21 17:57 | 2026 Apr 19 00:44:07 | 65.9521 | 0.01097 | 21.9392 | 142.8119 | 257.3016 | 13.73210 | – |
| 2026 Apr 20 17:57 | 2026 Apr 19 00:44:07 | 65.9521 | 0.01097 | 21.9392 | 142.8119 | 257.3016 | 13.73210 | – |
| 2026 Apr 19 17:58 | 2026 Apr 19 00:44:07 | 65.9521 | 0.01097 | 21.9392 | 142.8119 | 257.3016 | 13.73210 | – |
| 2026 Apr 18 17:56 | 2026 Apr 12 16:06:04 | 65.9530 | 0.01099 | 22.9788 | 146.2864 | 257.3016 | 13.73210 | – |
| 2026 Apr 16 17:57 | 2026 Apr 12 16:06:04 | 65.9530 | 0.01099 | 22.9788 | 146.2864 | 257.3016 | 13.73210 | – |
| 2026 Apr 14 17:57 | 2026 Apr 12 16:06:04 | 65.9530 | 0.01099 | 22.9788 | 146.2864 | 257.3016 | 13.73210 | – |
| 2026 Apr 13 17:57 | 2026 Apr 12 16:06:04 | 65.9530 | 0.01099 | 22.9788 | 146.2864 | 257.3016 | 13.73210 | – |
| 2026 Apr 12 17:57 | 2026 Apr 08 04:20:01 | 65.9535 | 0.01101 | 23.7128 | 148.7499 | 257.3016 | 13.73210 | – |
| 2026 Apr 11 17:57 | 2026 Apr 08 04:20:01 | 65.9535 | 0.01101 | 23.7128 | 148.7499 | 257.3016 | 13.73210 | – |
| 2026 Apr 10 17:58 | 2026 Apr 08 04:20:01 | 65.9535 | 0.01101 | 23.7128 | 148.7499 | 257.3016 | 13.73210 | – |
| 2026 Apr 09 18:01 | 2026 Apr 08 04:20:01 | 65.9535 | 0.01101 | 23.7128 | 148.7499 | 257.3016 | 13.73210 | – |
| 2026 Apr 08 17:57 | 2026 Apr 08 04:20:01 | 65.9535 | 0.01101 | 23.7128 | 148.7499 | 257.3016 | 13.73210 | – |
| 2026 Apr 07 17:57 | 2026 Apr 01 04:29:24 | 65.9536 | 0.01105 | 0.8560 | 152.6046 | 257.3016 | 13.73210 | – |
| 2026 Apr 06 17:57 | 2026 Apr 01 04:29:24 | 65.9536 | 0.01105 | 0.8560 | 152.6046 | 257.3016 | 13.73210 | – |